Time,TemperatureF,DewpointF,PressureIn,WindDirection,WindDirectionDegrees,WindSpeedMPH,WindSpeedGustMPH,Humidity,HourlyPrecipIn,Conditions,Clouds,dailyrainin,SoftwareType,DateUTC
2013-01-26 00:13:00,48.4,42.0,29.56,NNW,348,30.0,-999.0,78,-99.99,,,0.16,weatherlink.com 1.10,2013-01-26 00:13:00,
2013-01-26 00:28:00,48.0,40.0,29.56,NNW,339,28.0,-999.0,74,-99.99,,,0.16,weatherlink.com 1.10,2013-01-26 00:28:00,
2013-01-26 00:44:00,47.5,39.0,29.60,NNW,342,34.0,-999.0,71,-99.99,,,0.16,weatherlink.com 1.10,2013-01-26 00:44:00,
2013-01-26 00:58:00,47.2,39.0,29.61,NW,325,21.0,-999.0,72,-99.99,,,0.16,weatherlink.com 1.10,2013-01-26 00:58:00,
2013-01-26 01:13:00,47.1,40.0,29.62,NNW,336,16.0,-999.0,75,-99.99,,,0.16,weatherlink.com 1.10,2013-01-26 01:13:00,
2013-01-26 01:28:00,46.9,39.0,29.62,NNW,327,16.0,-999.0,75,-99.99,,,0.16,weatherlink.com 1.10,2013-01-26 01:28:00,
2013-01-26 01:44:00,46.9,39.0,29.64,NW,325,22.0,-999.0,75,-99.99,,,0.16,weatherlink.com 1.10,2013-01-26 01:44:00,
2013-01-26 01:59:00,46.8,39.0,29.66,NNW,341,16.0,-999.0,75,-99.99,,,0.16,weatherlink.com 1.10,2013-01-26 01:59:00,
2013-01-26 02:13:00,46.6,39.0,29.67,NNW,346,18.0,-999.0,75,-99.99,,,0.16,weatherlink.com 1.10,2013-01-26 02:13:00,
2013-01-26 02:28:00,46.6,39.0,29.68,NW,313,23.0,-999.0,75,-99.99,,,0.16,weatherlink.com 1.10,2013-01-26 02:28:00,
2013-01-26 02:43:00,46.5,39.0,29.69,NNW,329,23.0,-999.0,75,-99.99,,,0.16,weatherlink.com 1.10,2013-01-26 02:43:00,
2013-01-26 02:59:00,46.4,39.0,29.69,NNW,331,20.0,-999.0,74,-99.99,,,0.16,weatherlink.com 1.10,2013-01-26 02:59:00,
2013-01-26 03:14:00,46.3,39.0,29.70,NNW,345,13.0,-999.0,75,-99.99,,,0.16,weatherlink.com 1.10,2013-01-26 03:14:00,
2013-01-26 03:29:00,46.1,39.0,29.71,NNW,331,19.0,-999.0,76,-99.99,,,0.16,weatherlink.com 1.10,2013-01-26 03:29:00,
2013-01-26 03:43:00,46.0,39.0,29.72,NW,324,17.0,-999.0,76,-99.99,,,0.16,weatherlink.com 1.10,2013-01-26 03:43:00,
2013-01-26 03:59:00,45.9,39.0,29.73,NNW,338,15.0,-999.0,76,-99.99,,,0.16,weatherlink.com 1.10,2013-01-26 03:59:00,
2013-01-26 04:13:00,46.0,39.0,29.74,NW,323,19.0,-999.0,76,-99.99,,,0.16,weatherlink.com 1.10,2013-01-26 04:13:00,
2013-01-26 04:28:00,45.7,39.0,29.76,NNW,342,10.0,-999.0,76,-99.99,,,0.16,weatherlink.com 1.10,2013-01-26 04:28:00,
2013-01-26 04:43:00,45.8,39.0,29.78,NW,309,13.0,-999.0,76,-99.99,,,0.16,weatherlink.com 1.10,2013-01-26 04:43:00,
2013-01-26 04:59:00,45.9,39.0,29.79,NNW,348,6.0,-999.0,76,-99.99,,,0.16,weatherlink.com 1.10,2013-01-26 04:59:00,
2013-01-26 05:13:00,45.7,38.0,29.80,NNW,333,6.0,-999.0,75,-99.99,,,0.16,weatherlink.com 1.10,2013-01-26 05:13:00,
2013-01-26 05:29:00,45.4,38.0,29.81,NW,324,6.0,-999.0,76,-99.99,,,0.16,weatherlink.com 1.10,2013-01-26 05:29:00,
2013-01-26 05:44:00,45.4,38.0,29.81,NW,322,7.0,-999.0,76,-99.99,,,0.16,weatherlink.com 1.10,2013-01-26 05:44:00,
2013-01-26 05:58:00,45.2,38.0,29.80,NW,319,5.0,-999.0,76,-99.99,,,0.16,weatherlink.com 1.10,2013-01-26 05:58:00,
2013-01-26 06:13:00,44.9,38.0,29.81,NW,321,6.0,-999.0,77,-99.99,,,0.16,weatherlink.com 1.10,2013-01-26 06:13:00,
2013-01-26 06:29:00,44.7,38.0,29.82,NW,321,7.0,-999.0,77,-99.99,,,0.16,weatherlink.com 1.10,2013-01-26 06:29:00,
2013-01-26 06:43:00,44.2,37.0,29.82,NW,319,7.0,-999.0,77,-99.99,,,0.16,weatherlink.com 1.10,2013-01-26 06:43:00,
2013-01-26 06:58:00,43.9,37.0,29.82,NW,319,6.0,-999.0,78,-99.99,,,0.16,weatherlink.com 1.10,2013-01-26 06:58:00,
2013-01-26 07:14:00,43.5,37.0,29.83,NW,317,6.0,-999.0,79,-99.99,,,0.16,weatherlink.com 1.10,2013-01-26 07:14:00,
2013-01-26 07:29:00,42.3,36.0,29.82,NW,309,8.0,-999.0,79,-99.99,,,0.16,weatherlink.com 1.10,2013-01-26 07:29:00,
2013-01-26 07:43:00,42.2,36.0,29.82,WNW,292,7.0,-999.0,80,-99.99,,,0.16,weatherlink.com 1.10,2013-01-26 07:43:00,
2013-01-26 07:58:00,43.1,37.0,29.83,WNW,291,3.0,-999.0,80,-99.99,,,0.16,weatherlink.com 1.10,2013-01-26 07:58:00,
2013-01-26 08:13:00,42.9,37.0,29.84,WNW,290,6.0,-999.0,79,-99.99,,,0.16,weatherlink.com 1.10,2013-01-26 08:13:00,
2013-01-26 08:28:00,42.3,37.0,29.85,WNW,290,5.0,-999.0,80,-99.99,,,0.16,weatherlink.com 1.10,2013-01-26 08:28:00,
2013-01-26 08:44:00,41.9,36.0,29.86,WNW,290,6.0,-999.0,80,-99.99,,,0.16,weatherlink.com 1.10,2013-01-26 08:44:00,
2013-01-26 08:58:00,42.1,37.0,29.86,WNW,290,4.0,-999.0,81,-99.99,,,0.16,weatherlink.com 1.10,2013-01-26 08:58:00,
2013-01-26 09:14:00,43.1,37.0,29.86,WNW,290,4.0,-999.0,80,-99.99,,,0.16,weatherlink.com 1.10,2013-01-26 09:14:00,
2013-01-26 09:28:00,43.7,38.0,29.87,WNW,290,2.0,-999.0,81,-99.99,,,0.16,weatherlink.com 1.10,2013-01-26 09:28:00,
2013-01-26 09:44:00,44.7,39.0,29.87,WNW,290,5.0,-999.0,81,-99.99,,,0.16,weatherlink.com 1.10,2013-01-26 09:44:00,
2013-01-26 09:59:00,45.9,40.0,29.86,WNW,290,3.0,-999.0,80,-99.99,,,0.16,weatherlink.com 1.10,2013-01-26 09:59:00,
2013-01-26 10:13:00,46.9,41.0,29.87,WNW,285,7.0,-999.0,79,-99.99,,,0.16,weatherlink.com 1.10,2013-01-26 10:13:00,
2013-01-26 10:29:00,47.5,41.0,29.86,West,269,4.0,-999.0,79,-99.99,,,0.16,weatherlink.com 1.10,2013-01-26 10:29:00,
2013-01-26 10:43:00,48.3,42.0,29.86,WSW,237,6.0,-999.0,78,-99.99,,,0.16,weatherlink.com 1.10,2013-01-26 10:43:00,
2013-01-26 10:58:00,48.8,42.0,29.86,WSW,246,5.0,-999.0,78,-99.99,,,0.16,weatherlink.com 1.10,2013-01-26 10:58:00,
2013-01-26 11:13:00,49.2,43.0,29.87,WSW,246,14.0,-999.0,78,-99.99,,,0.16,weatherlink.com 1.10,2013-01-26 11:13:00,
2013-01-26 11:28:00,49.4,42.0,29.87,WSW,244,6.0,-999.0,77,-99.99,,,0.16,weatherlink.com 1.10,2013-01-26 11:28:00,
2013-01-26 11:43:00,49.7,43.0,29.87,West,259,14.0,-999.0,77,-99.99,,,0.16,weatherlink.com 1.10,2013-01-26 11:43:00,
2013-01-26 11:59:00,49.8,43.0,29.86,WSW,237,8.0,-999.0,77,-99.99,,,0.16,weatherlink.com 1.10,2013-01-26 11:59:00,
2013-01-26 12:14:00,49.9,43.0,29.85,WSW,249,9.0,-999.0,77,-99.99,,,0.16,weatherlink.com 1.10,2013-01-26 12:14:00,
2013-01-26 12:29:00,50.3,43.0,29.85,WSW,252,6.0,-999.0,77,-99.99,,,0.16,weatherlink.com 1.10,2013-01-26 12:29:00,
2013-01-26 12:44:00,50.4,43.0,29.83,WSW,243,11.0,-999.0,76,-99.99,,,0.16,weatherlink.com 1.10,2013-01-26 12:44:00,
2013-01-26 12:59:00,50.3,43.0,29.82,SW,226,18.0,-999.0,76,-99.99,,,0.16,weatherlink.com 1.10,2013-01-26 12:59:00,
2013-01-26 13:13:00,49.8,43.0,29.81,WSW,244,15.0,-999.0,77,-99.99,,,0.16,weatherlink.com 1.10,2013-01-26 13:13:00,
2013-01-26 13:29:00,49.5,43.0,29.81,WSW,242,14.0,-999.0,78,-99.99,,,0.16,weatherlink.com 1.10,2013-01-26 13:29:00,
2013-01-26 13:43:00,49.6,43.0,29.80,SW,219,6.0,-999.0,78,-99.99,,,0.16,weatherlink.com 1.10,2013-01-26 13:43:00,
2013-01-26 13:59:00,50.1,44.0,29.79,WSW,240,12.0,-999.0,78,-99.99,,,0.16,weatherlink.com 1.10,2013-01-26 13:59:00,
2013-01-26 14:13:00,50.2,44.0,29.78,SSW,205,11.0,-999.0,78,-99.99,,,0.16,weatherlink.com 1.10,2013-01-26 14:13:00,
2013-01-26 14:28:00,50.1,44.0,29.77,SW,216,9.0,-999.0,79,-99.99,,,0.16,weatherlink.com 1.10,2013-01-26 14:28:00,
2013-01-26 14:43:00,50.2,44.0,29.76,SW,227,13.0,-999.0,79,-99.99,,,0.16,weatherlink.com 1.10,2013-01-26 14:43:00,
2013-01-26 14:58:00,50.4,44.0,29.75,SSW,202,15.0,-999.0,79,-99.99,,,0.16,weatherlink.com 1.10,2013-01-26 14:58:00,
2013-01-26 15:13:00,50.4,44.0,29.74,SW,230,12.0,-999.0,79,-99.99,,,0.16,weatherlink.com 1.10,2013-01-26 15:13:00,
2013-01-26 15:29:00,50.4,44.0,29.73,SW,214,16.0,-999.0,79,-99.99,,,0.16,weatherlink.com 1.10,2013-01-26 15:29:00,
2013-01-26 15:43:00,50.3,44.0,29.72,SW,235,16.0,-999.0,79,-99.99,,,0.16,weatherlink.com 1.10,2013-01-26 15:43:00,
2013-01-26 15:58:00,50.3,44.0,29.71,SSW,204,13.0,-999.0,79,-99.99,,,0.16,weatherlink.com 1.10,2013-01-26 15:58:00,
2013-01-26 16:13:00,50.3,44.0,29.71,SSW,192,9.0,-999.0,79,-99.99,,,0.16,weatherlink.com 1.10,2013-01-26 16:13:00,
2013-01-26 16:28:00,50.3,44.0,29.71,SW,225,10.0,-999.0,79,-99.99,,,0.16,weatherlink.com 1.10,2013-01-26 16:28:00,
2013-01-26 16:43:00,50.3,44.0,29.70,SW,221,11.0,-999.0,79,-99.99,,,0.16,weatherlink.com 1.10,2013-01-26 16:43:00,
2013-01-26 16:58:00,49.7,44.0,29.68,SW,214,9.0,-999.0,81,-99.99,,,0.17,weatherlink.com 1.10,2013-01-26 16:58:00,
2013-01-26 17:14:00,49.6,44.0,29.67,SSW,207,7.0,-999.0,81,-99.99,,,0.17,weatherlink.com 1.10,2013-01-26 17:14:00,
2013-01-26 17:29:00,49.6,44.0,29.66,SSW,212,12.0,-999.0,81,-99.99,,,0.18,weatherlink.com 1.10,2013-01-26 17:29:00,
2013-01-26 17:44:00,49.7,44.0,29.66,SW,216,17.0,-999.0,81,-99.99,,,0.18,weatherlink.com 1.10,2013-01-26 17:44:00,
2013-01-26 17:59:00,50.0,44.0,29.65,SSW,206,11.0,-999.0,80,-99.99,,,0.21,weatherlink.com 1.10,2013-01-26 17:59:00,
2013-01-26 18:14:00,49.4,44.0,29.64,SSW,207,5.0,-999.0,82,-99.99,,,0.00,weatherlink.com 1.10,2013-01-26 18:14:00,
2013-01-26 18:29:00,49.7,44.0,29.63,SSW,208,17.0,-999.0,82,-99.99,,,0.04,weatherlink.com 1.10,2013-01-26 18:29:00,
2013-01-26 18:44:00,50.0,45.0,29.61,SSW,206,13.0,-999.0,82,-99.99,,,0.04,weatherlink.com 1.10,2013-01-26 18:44:00,
2013-01-26 18:58:00,50.6,45.0,29.60,SSW,212,14.0,-999.0,82,-99.99,,,0.04,weatherlink.com 1.10,2013-01-26 18:58:00,
2013-01-26 19:13:00,50.9,46.0,29.59,SW,228,14.0,-999.0,82,-99.99,,,0.04,weatherlink.com 1.10,2013-01-26 19:13:00,
2013-01-26 19:28:00,51.1,46.0,29.58,SW,217,19.0,-999.0,82,-99.99,,,0.04,weatherlink.com 1.10,2013-01-26 19:28:00,
2013-01-26 19:43:00,51.3,46.0,29.57,SSW,200,13.0,-999.0,83,-99.99,,,0.04,weatherlink.com 1.10,2013-01-26 19:43:00,
2013-01-26 19:58:00,51.5,47.0,29.57,SW,219,15.0,-999.0,83,-99.99,,,0.04,weatherlink.com 1.10,2013-01-26 19:58:00,
2013-01-26 20:13:00,51.5,47.0,29.56,SSW,204,5.0,-999.0,83,-99.99,,,0.04,weatherlink.com 1.10,2013-01-26 20:13:00,
2013-01-26 20:28:00,51.6,47.0,29.55,SW,221,12.0,-999.0,84,-99.99,,,0.04,weatherlink.com 1.10,2013-01-26 20:28:00,
2013-01-26 20:43:00,51.7,47.0,29.54,SW,219,16.0,-999.0,84,-99.99,,,0.04,weatherlink.com 1.10,2013-01-26 20:43:00,
2013-01-26 20:58:00,51.6,47.0,29.53,SSW,195,16.0,-999.0,85,-99.99,,,0.04,weatherlink.com 1.10,2013-01-26 20:58:00,
2013-01-26 21:13:00,51.6,48.0,29.51,SW,219,10.0,-999.0,86,-99.99,,,0.04,weatherlink.com 1.10,2013-01-26 21:13:00,
2013-01-26 21:28:00,51.5,48.0,29.50,WSW,254,13.0,-999.0,86,-99.99,,,0.04,weatherlink.com 1.10,2013-01-26 21:28:00,
2013-01-26 21:43:00,51.7,48.0,29.50,SW,223,9.0,-999.0,87,-99.99,,,0.04,weatherlink.com 1.10,2013-01-26 21:43:00,
2013-01-26 21:58:00,51.9,48.0,29.49,SW,216,14.0,-999.0,87,-99.99,,,0.04,weatherlink.com 1.10,2013-01-26 21:58:00,
2013-01-26 22:13:00,52.0,48.0,29.48,SSW,213,10.0,-999.0,87,-99.99,,,0.05,weatherlink.com 1.10,2013-01-26 22:13:00,
2013-01-26 22:28:00,52.1,48.0,29.46,SSW,195,15.0,-999.0,87,-99.99,,,0.05,weatherlink.com 1.10,2013-01-26 22:28:00,
2013-01-26 22:44:00,52.2,49.0,29.45,SW,217,13.0,-999.0,87,-99.99,,,0.05,weatherlink.com 1.10,2013-01-26 22:44:00,
2013-01-26 22:58:00,52.3,49.0,29.43,SW,227,12.0,-999.0,87,-99.99,,,0.06,weatherlink.com 1.10,2013-01-26 22:58:00,
2013-01-26 23:13:00,52.4,49.0,29.41,SW,217,12.0,-999.0,87,-99.99,,,0.07,weatherlink.com 1.10,2013-01-26 23:13:00,
2013-01-26 23:28:00,52.4,49.0,29.41,SW,221,18.0,-999.0,87,-99.99,,,0.08,weatherlink.com 1.10,2013-01-26 23:28:00,
2013-01-26 23:44:00,52.4,49.0,29.41,SSW,205,8.0,-999.0,87,-99.99,,,0.08,weatherlink.com 1.10,2013-01-26 23:44:00,
2013-01-26 23:58:00,52.6,49.0,29.39,SW,230,13.0,-999.0,87,-99.99,,,0.08,weatherlink.com 1.10,2013-01-26 23:58:00,